STARLINK-32029 (60145 NORAD) Tracking and Keplerian Element Data

This shows tracking and keplerian element data for the satellite.

Feedback or suggestion? Click here.




ElementValue
Catalog60145
NameSTARLINK-32029
Epoch Orbit1777
Epoch Day286.72231059
Epoch Year2024
RAAN187.2199
Inclination53.159
Eccentricity8.77E-05
Argument of Perigee65.1052
Mean Anonmoly295.0044
Mean Motion15.39752567
Decay Rate0.00172779
L11 60145U 24120L 24286.72231059 .00172779 00000+0 42139-2 0 9999
L22 60145 53.1590 187.2199 0000877 65.1052 295.0044 15.39752567 17775



Live tracking and technical data element details for STARLINK-32029 (NORAD 60145). STARLINK-32029 can be tracked NOW for your location showing map with azimuth and elevation plus other details from your city location.







IsCatalogInMostPopularTable: catalog: 60145, numindb: 9
Update: records affected: 1



GetName: 60145 STARLINK-32029

Hit Count: updated at: Thu, 23 Jan 2025 16:47:22 GMT